STARLINK-35080

Last updated on Thu Oct 02 2025 00:02:05 GMT+0000 (Coordinated Universal Time)

1 65437U 25194D 25274.50002315 -.00430491 00000+0 -11581-1 0 9991 2 65437 97.6028 126.8282 0001607 102.4673 211.0207 15.39563958 4927

Satellite not in orbit

STARLINK-35080